STARLINK-2629, 48686

Orbit data source: Space-Track

STARLINK-2629, 48686 is a payload satellite owned by SpaceX/Seattle (US) in LEO that was launched on Wed, 26 May 2021 UTC via an FALCON 9 launch vehicle from the Air Force Eastern Test Range (AFETR). Payload-class satellites include a variety of spacecraft equipped with specific instruments for various scientific and technological missions. These include communications satellites like Starlink; space stations such as the ISS; scientific satellites like the Hubble; Earth observation satellites from companies like Planet Labs, Umbra, and HawkEye 360; GPS; miniature CubeSats for education and research; and military/defense satellites.

Loading next visibility...
Identifier
48686, 2021-044BA
Orbit
LEO
Country
Flag of USUS
Related business
Manufacturer
SpaceX/Seattle
Mission
Operational Commercial Communications
Bus & Motor
STARLINK, Unknown motor
Mass
260 kg wet, ~248 kg dry
Launch date (UTC)
2021-05-26 (5 years ago)
Launch vehicle
FALCON 9
Launch site
Air Force Eastern Test Range (AFETR)
Object type
Payload
Rocket body
Debris
Shape & HBR
Box + 1 Pan, 10.1 m
Radar Cross Section
13.562 m², Large (>1 m²)

Expand to show TLE details & history
Last TLE update: 22 hours ago

TLE from 22 hours ago
0 STARLINK-2629
1 48686U 21044BA  25349.57987204  .00001582  00000-0  12510-3 0  9996
2 48686  53.0548  94.4838 0001410  91.4960 268.6190 15.06389552251655
Epoch: 2025-12-15T13:55Z
TLE epoch observation values (Epoch: 2025-12-15T13:55:00.944Z)
Latitude
-0.00005°
Longitude
161.25343°
Altitude
548.146 km
Speed
7.589 km/s
True Right ascension
06h 17m 56s
True Declination
0° 00' 00"
Sunlit
Object was in full shadow at epoch
Visualization orbit readout
Latitude
Unknown
Longitude
Unknown
Altitude
Unknown
Speed
Unknown
Apparent Right ascension
Unknown
Apparent Declination
Unknown
Sunlit
N/A
Visualization observer readout
Local Sidereal Time
10:39:36
Azimuth
Unknown
Elevation
Unknown
Doppler factor
Unknown
Orbital elements
Apogee altitude
548.491 km
Perigee altitude
546.538 km
Semi-major axis
6,925.651 km
Eccentricity
0.00014
Inclination
53.0548°
RAAN
94.4838°
Arg. of periapsis
91.496°
True anomaly
268.60285°
Mean anomaly
268.619°
Eccentric anomaly
268.61092°
Mean motion
3.76576 °/min
Orbital period
95.6 mins
BSTAR
0.0001251
Loading maneuver chart data...
Computing Atmospheric mass density...
Loading historical data...
Loading historical data...
Loading historical data...
Loading historical data...
Loading historical data...
Loading historical data...
Loading historical data...

Documentation

Showing up to 5 results
|